Вернуться в каталог

STARLINK-3339

АктивенСвязьVLEO
NORAD 50820·PAYLOAD·🇺🇸 United States

Запущен Jan 6, 2022 с Cape Canaveral Space Force Station

Loading…

Ближайшие Пролёты (ближайшие 24 часа)

TLE

СвежийSource: CelesTrak SupGP

Эпоха: Sep 15, 2026, 01:47 UTC

1 50820C 22001T   26258.07479167 -.00023911  00000+0 -76896-3 0  2588
2 50820  53.1593  29.1555 0001104  86.8289 354.3948 15.31711714    15

Отслеживайте STARLINK-3339 в реальном времени с AllMySat

Download on the App Store